This is the latest recevied weather packets stored in our database for station/object K3RUP-1. If no packets are shown the sender has not sent any weather packets the latest 10 day(s).
| Time | Temp. | Humidity | Pressure | Rain* | Wind** | Luminosity | Snow |
|---|---|---|---|---|---|---|---|
| 1788373243 | 21.67° C | 99% | 1017.4 hPa | 1.27 mm | - | 30 W/m² | - |
| 1788372939 | 21.67° C | 99% | 1018.2 hPa | 1.27 mm | - | 32 W/m² | - |
| 1788372638 | 21.67° C | 98% | 1018.8 hPa | 0 mm | - | 32 W/m² | - |
| 1788372332 | 21.67° C | 98% | 1019.2 hPa | 0 mm | - | 29 W/m² | - |
| 1788372029 | 22.22° C | 97% | 1019.5 hPa | 0 mm | - | 34 W/m² | - |
| 1788371728 | 21.67° C | 97% | 1019.7 hPa | 3.05 mm | - | 39 W/m² | - |
| 1788371424 | 22.22° C | 97% | 1019.8 hPa | 10.67 mm | - | 32 W/m² | - |
| 1788371121 | 22.22° C | 96% | 1019.7 hPa | 19.81 mm | - | 32 W/m² | - |
| 1788370816 | 22.22° C | 95% | 1020 hPa | 29.46 mm | - | 26 W/m² | - |
| 1788370516 | 22.78° C | 94% | 1020.5 hPa | 25.91 mm | - | 21 W/m² | - |
| 1788370216 | 23.89° C | 90% | 1020.7 hPa | 10.16 mm | - | 14 W/m² | - |
| 1788369915 | 25.56° C | 81% | 1021.2 hPa | 0 mm | - | 9 W/m² | - |
| 1788369611 | 27.78° C | 81% | 1020.9 hPa | 0 mm | - | 1 W/m² | - |
| 1788369328 | 28.33° C | 80% | 1019.7 hPa | 0 mm | - | 52 W/m² | - |
| 1788369002 | 28.33° C | 79% | 1018.7 hPa | 0 mm | - | 275 W/m² | - |
| 1788368696 | 28.33° C | 79% | 1019 hPa | 0 mm | - | 264 W/m² | - |
| 1788368392 | 28.33° C | 80% | 1018.8 hPa | 0 mm | - | 302 W/m² | - |
| 1788368091 | 28.89° C | 80% | 1018.4 hPa | 0 mm | - | 289 W/m² | - |
| 1788367786 | 28.33° C | 80% | 1018.5 hPa | 0 mm | - | 379 W/m² | - |
| 1788367481 | 28.33° C | 79% | 1018.1 hPa | 0 mm | - | 475 W/m² | - |
| 1788367180 | 27.78° C | 82% | 1018.2 hPa | 0 mm | - | 550 W/m² | - |
| 1788366876 | 27.22° C | 82% | 1018.4 hPa | 0 mm | - | 278 W/m² | - |
| 1788366573 | 26.67° C | 83% | 1018.5 hPa | 0 mm | - | 333 W/m² | - |
| 1788366269 | 26.67° C | 83% | 1018.5 hPa | 0 mm | - | 195 W/m² | - |
| 1788365969 | 26.67° C | 84% | 1018.5 hPa | 0 mm | - | 154 W/m² | - |
* Rain latest hour (hover to see other rain measurements)
** Current wind speed in m/s (hover to see current wind gust speed)